Time,TemperatureF,DewpointF,PressureIn,WindDirection,WindDirectionDegrees,WindSpeedMPH,WindSpeedGustMPH,Humidity,HourlyPrecipIn,Conditions,Clouds,dailyrainin,SoftwareType,DateUTC
2013-07-10 00:02:00,82.4,69.8,29.26,North,0,0.0,-999.9,66,-99.99,,,-99.99,,2013-07-10 04:02:00,
2013-07-10 00:04:00,82.4,69.8,29.26,North,0,0.0,-999.9,66,-99.99,,,-99.99,,2013-07-10 04:04:00,
2013-07-10 00:06:00,82.4,69.8,29.26,North,0,0.0,-999.9,66,-99.99,,,-99.99,,2013-07-10 04:06:00,
2013-07-10 00:08:00,82.4,69.8,29.26,North,0,0.0,-999.9,66,-99.99,,,-99.99,,2013-07-10 04:08:00,
2013-07-10 00:10:00,80.6,69.8,29.26,North,0,0.0,-999.9,70,-99.99,,,-99.99,,2013-07-10 04:10:00,
2013-07-10 00:16:00,80.6,69.8,29.26,North,0,0.0,-999.9,70,-99.99,,,-99.99,,2013-07-10 04:16:00,
2013-07-10 00:22:00,80.6,68.0,29.26,North,0,0.0,-999.9,65,-99.99,,,-99.99,,2013-07-10 04:22:00,
2013-07-10 00:28:00,80.6,68.0,29.26,North,0,0.0,-999.9,65,-99.99,,,-99.99,,2013-07-10 04:28:00,
2013-07-10 00:34:00,80.6,68.0,29.26,North,0,0.0,-999.9,65,-99.99,,,-99.99,,2013-07-10 04:34:00,
2013-07-10 00:40:00,80.6,68.0,29.26,North,0,0.0,-999.9,65,-99.99,,,-99.99,,2013-07-10 04:40:00,
2013-07-10 00:46:00,82.4,69.8,29.26,North,0,0.0,-999.9,66,-99.99,,,-99.99,,2013-07-10 04:46:00,
2013-07-10 00:52:00,82.4,69.8,29.25,North,0,0.0,-999.9,66,-99.99,,,-99.99,,2013-07-10 04:52:00,
2013-07-10 00:58:00,82.4,69.8,29.25,North,0,0.0,-999.9,66,-99.99,,,-99.99,,2013-07-10 04:58:00,
2013-07-10 01:04:00,82.4,68.0,29.25,WSW,240,0.0,-999.9,62,-99.99,,,-99.99,,2013-07-10 05:04:00,
2013-07-10 01:10:00,82.4,68.0,29.25,WSW,240,0.0,-999.9,62,-99.99,,,-99.99,,2013-07-10 05:10:00,
2013-07-10 01:16:00,82.4,68.0,29.25,North,0,0.0,-999.9,62,-99.99,,,-99.99,,2013-07-10 05:16:00,
2013-07-10 01:22:00,82.4,68.0,29.25,North,0,0.0,-999.9,62,-99.99,,,-99.99,,2013-07-10 05:22:00,
2013-07-10 01:28:00,82.4,68.0,29.25,North,0,0.0,-999.9,62,-99.99,,,-99.99,,2013-07-10 05:28:00,
2013-07-10 01:34:00,82.4,68.0,29.24,North,0,0.0,-999.9,62,-99.99,,,-99.99,,2013-07-10 05:34:00,
2013-07-10 01:40:00,82.4,68.0,29.24,North,0,0.0,-999.9,62,-99.99,,,-99.99,,2013-07-10 05:40:00,
2013-07-10 02:02:00,80.6,68.0,29.24,North,0,0.0,-999.9,65,-99.99,,,-99.99,,2013-07-10 06:02:00,
2013-07-10 02:08:00,80.6,68.0,29.24,North,0,0.0,-999.9,65,-99.99,,,-99.99,,2013-07-10 06:08:00,
2013-07-10 02:14:00,80.6,68.0,29.24,SW,221,1.2,-999.9,65,-99.99,,,-99.99,,2013-07-10 06:14:00,
2013-07-10 02:20:00,80.6,68.0,29.24,SW,221,1.2,-999.9,65,-99.99,,,-99.99,,2013-07-10 06:20:00,
2013-07-10 02:26:00,80.6,68.0,29.23,SW,217,2.3,-999.9,65,-99.99,,,-99.99,,2013-07-10 06:26:00,
2013-07-10 02:32:00,80.6,68.0,29.23,SW,226,1.2,-999.9,65,-99.99,,,-99.99,,2013-07-10 06:32:00,
2013-07-10 02:38:00,80.6,68.0,29.23,SW,226,1.2,-999.9,65,-99.99,,,-99.99,,2013-07-10 06:38:00,
2013-07-10 02:44:00,80.6,68.0,29.23,North,0,0.0,-999.9,65,-99.99,,,-99.99,,2013-07-10 06:44:00,
2013-07-10 02:50:00,80.6,68.0,29.23,North,0,0.0,-999.9,65,-99.99,,,-99.99,,2013-07-10 06:50:00,
2013-07-10 02:56:00,80.6,68.0,29.23,North,0,0.0,-999.9,65,-99.99,,,-99.99,,2013-07-10 06:56:00,
2013-07-10 03:02:00,80.6,68.0,29.23,North,0,0.0,-999.9,65,-99.99,,,-99.99,,2013-07-10 07:02:00,
2013-07-10 03:08:00,80.6,68.0,29.23,North,0,0.0,-999.9,65,-99.99,,,-99.99,,2013-07-10 07:08:00,
2013-07-10 03:14:00,80.6,68.0,29.23,North,0,0.0,-999.9,65,-99.99,,,-99.99,,2013-07-10 07:14:00,
2013-07-10 03:20:00,80.6,68.0,29.23,North,0,0.0,-999.9,65,-99.99,,,-99.99,,2013-07-10 07:20:00,
2013-07-10 03:26:00,80.6,69.8,29.22,North,0,0.0,-999.9,70,-99.99,,,-99.99,,2013-07-10 07:26:00,
2013-07-10 03:32:00,78.8,68.0,29.22,North,0,0.0,-999.9,69,-99.99,,,-99.99,,2013-07-10 07:32:00,
2013-07-10 03:38:00,78.8,68.0,29.22,North,0,0.0,-999.9,69,-99.99,,,-99.99,,2013-07-10 07:38:00,
2013-07-10 03:44:00,78.8,69.8,29.22,South,171,3.5,-999.9,74,-99.99,,,-99.99,,2013-07-10 07:44:00,
2013-07-10 03:50:00,78.8,69.8,29.22,South,171,3.5,-999.9,74,-99.99,,,-99.99,,2013-07-10 07:50:00,
2013-07-10 03:56:00,78.8,69.8,29.23,North,0,0.0,-999.9,74,-99.99,,,-99.99,,2013-07-10 07:56:00,
2013-07-10 04:02:00,78.8,69.8,29.23,North,0,0.0,-999.9,74,-99.99,,,-99.99,,2013-07-10 08:02:00,
2013-07-10 04:08:00,78.8,69.8,29.23,North,0,0.0,-999.9,74,-99.99,,,-99.99,,2013-07-10 08:08:00,
2013-07-10 04:14:00,78.8,69.8,29.23,SSW,204,1.2,-999.9,74,-99.99,,,-99.99,,2013-07-10 08:14:00,
2013-07-10 04:20:00,78.8,69.8,29.23,SSW,204,1.2,-999.9,74,-99.99,,,-99.99,,2013-07-10 08:20:00,
2013-07-10 04:26:00,78.8,69.8,29.22,SW,224,2.3,-999.9,74,-99.99,,,-99.99,,2013-07-10 08:26:00,
2013-07-10 04:32:00,78.8,69.8,29.22,SW,223,1.2,-999.9,74,-99.99,,,-99.99,,2013-07-10 08:32:00,
2013-07-10 04:38:00,78.8,69.8,29.22,SW,223,1.2,-999.9,74,-99.99,,,-99.99,,2013-07-10 08:38:00,
2013-07-10 04:44:00,78.8,69.8,29.22,North,0,0.0,-999.9,74,-99.99,,,-99.99,,2013-07-10 08:44:00,
2013-07-10 04:50:00,78.8,69.8,29.22,North,0,0.0,-999.9,74,-99.99,,,-99.99,,2013-07-10 08:50:00,
2013-07-10 04:56:00,78.8,69.8,29.23,North,0,0.0,-999.9,74,-99.99,,,-99.99,,2013-07-10 08:56:00,
2013-07-10 05:02:00,78.8,69.8,29.23,WSW,241,3.5,-999.9,74,-99.99,,,-99.99,,2013-07-10 09:02:00,
2013-07-10 05:08:00,78.8,69.8,29.23,WSW,241,3.5,-999.9,74,-99.99,,,-99.99,,2013-07-10 09:08:00,
2013-07-10 05:14:00,78.8,69.8,29.23,SW,229,0.0,-999.9,74,-99.99,,,-99.99,,2013-07-10 09:14:00,
2013-07-10 05:20:00,78.8,69.8,29.23,SW,229,0.0,-999.9,74,-99.99,,,-99.99,,2013-07-10 09:20:00,
2013-07-10 05:26:00,78.8,69.8,29.23,North,0,0.0,-999.9,74,-99.99,,,-99.99,,2013-07-10 09:26:00,
2013-07-10 05:32:00,78.8,71.6,29.23,North,0,0.0,-999.9,78,-99.99,,,-99.99,,2013-07-10 09:32:00,
2013-07-10 05:38:00,78.8,71.6,29.23,North,0,0.0,-999.9,78,-99.99,,,-99.99,,2013-07-10 09:38:00,
2013-07-10 05:44:00,78.8,71.6,29.23,North,0,0.0,-999.9,78,-99.99,,,-99.99,,2013-07-10 09:44:00,
2013-07-10 05:50:00,78.8,71.6,29.23,North,0,0.0,-999.9,78,-99.99,,,-99.99,,2013-07-10 09:50:00,
2013-07-10 05:56:00,78.8,71.6,29.23,North,0,0.0,-999.9,78,-99.99,,,-99.99,,2013-07-10 09:56:00,
2013-07-10 06:02:00,78.8,69.8,29.23,North,0,0.0,-999.9,74,-99.99,,,-99.99,,2013-07-10 10:02:00,
2013-07-10 06:08:00,78.8,69.8,29.23,North,0,0.0,-999.9,74,-99.99,,,-99.99,,2013-07-10 10:08:00,
2013-07-10 06:14:00,78.8,69.8,29.23,North,0,0.0,-999.9,74,-99.99,,,-99.99,,2013-07-10 10:14:00,
2013-07-10 06:20:00,78.8,69.8,29.23,North,0,0.0,-999.9,74,-99.99,,,-99.99,,2013-07-10 10:20:00,
2013-07-10 06:26:00,77.0,71.6,29.23,North,0,0.0,-999.9,83,-99.99,,,-99.99,,2013-07-10 10:26:00,
2013-07-10 06:32:00,77.0,69.8,29.23,North,0,0.0,-999.9,78,-99.99,,,-99.99,,2013-07-10 10:32:00,
2013-07-10 06:38:00,77.0,69.8,29.23,North,0,0.0,-999.9,78,-99.99,,,-99.99,,2013-07-10 10:38:00,
2013-07-10 06:44:00,77.0,69.8,29.23,North,0,0.0,-999.9,78,-99.99,,,-99.99,,2013-07-10 10:44:00,
2013-07-10 06:50:00,77.0,69.8,29.23,North,0,0.0,-999.9,78,-99.99,,,-99.99,,2013-07-10 10:50:00,
2013-07-10 06:56:00,78.8,71.6,29.22,South,170,0.0,-999.9,78,-99.99,,,-99.99,,2013-07-10 10:56:00,
2013-07-10 07:02:00,78.8,71.6,29.21,North,0,0.0,-999.9,78,-99.99,,,-99.99,,2013-07-10 11:02:00,
2013-07-10 07:08:00,78.8,71.6,29.21,North,0,0.0,-999.9,78,-99.99,,,-99.99,,2013-07-10 11:08:00,
2013-07-10 07:14:00,78.8,71.6,29.21,North,0,0.0,-999.9,78,-99.99,,,-99.99,,2013-07-10 11:14:00,
2013-07-10 07:20:00,78.8,71.6,29.21,North,0,0.0,-999.9,78,-99.99,,,-99.99,,2013-07-10 11:20:00,
2013-07-10 07:26:00,80.6,71.6,29.21,North,0,0.0,-999.9,74,-99.99,,,-99.99,,2013-07-10 11:26:00,
2013-07-10 07:32:00,78.8,69.8,29.21,North,0,0.0,-999.9,74,-99.99,,,-99.99,,2013-07-10 11:32:00,
2013-07-10 07:38:00,78.8,69.8,29.21,North,0,0.0,-999.9,74,-99.99,,,-99.99,,2013-07-10 11:38:00,
2013-07-10 07:44:00,80.6,71.6,29.21,North,0,0.0,-999.9,74,-99.99,,,-99.99,,2013-07-10 11:44:00,
2013-07-10 07:50:00,80.6,71.6,29.21,North,0,0.0,-999.9,74,-99.99,,,-99.99,,2013-07-10 11:50:00,
2013-07-10 07:56:00,80.6,71.6,29.21,SW,214,6.9,-999.9,74,-99.99,,,-99.99,,2013-07-10 11:56:00,
2013-07-10 08:02:00,80.6,71.6,29.21,North,0,0.0,-999.9,74,-99.99,,,-99.99,,2013-07-10 12:02:00,
2013-07-10 08:08:00,80.6,71.6,29.21,North,0,0.0,-999.9,74,-99.99,,,-99.99,,2013-07-10 12:08:00,
2013-07-10 08:14:00,80.6,71.6,29.21,SW,235,6.9,-999.9,74,-99.99,,,-99.99,,2013-07-10 12:14:00,
2013-07-10 08:20:00,80.6,71.6,29.21,SW,235,6.9,-999.9,74,-99.99,,,-99.99,,2013-07-10 12:20:00,
2013-07-10 08:26:00,80.6,71.6,29.20,SSW,213,8.1,-999.9,74,-99.99,,,-99.99,,2013-07-10 12:26:00,
2013-07-10 08:32:00,80.6,71.6,29.20,SSW,213,8.1,-999.9,74,-99.99,,,-99.99,,2013-07-10 12:32:00,
2013-07-10 08:38:00,80.6,71.6,29.20,SSW,213,8.1,-999.9,74,-99.99,,,-99.99,,2013-07-10 12:38:00,
2013-07-10 08:44:00,82.4,71.6,29.19,SSW,211,3.5,-999.9,70,-99.99,,,-99.99,,2013-07-10 12:44:00,
2013-07-10 08:50:00,82.4,71.6,29.19,SSW,211,3.5,-999.9,70,-99.99,,,-99.99,,2013-07-10 12:50:00,
2013-07-10 08:56:00,82.4,71.6,29.19,North,0,0.0,-999.9,70,-99.99,,,-99.99,,2013-07-10 12:56:00,
2013-07-10 09:02:00,82.4,71.6,29.18,North,0,0.0,-999.9,70,-99.99,,,-99.99,,2013-07-10 13:02:00,
2013-07-10 09:08:00,82.4,71.6,29.18,North,0,0.0,-999.9,70,-99.99,,,-99.99,,2013-07-10 13:08:00,
2013-07-10 09:14:00,84.2,73.4,29.18,SW,221,2.3,-999.9,70,-99.99,,,-99.99,,2013-07-10 13:14:00,
2013-07-10 09:20:00,84.2,73.4,29.18,SW,221,2.3,-999.9,70,-99.99,,,-99.99,,2013-07-10 13:20:00,
2013-07-10 09:26:00,84.2,71.6,29.17,SW,222,5.8,-999.9,66,-99.99,,,-99.99,,2013-07-10 13:26:00,
2013-07-10 09:32:00,86.0,71.6,29.16,SW,226,8.1,-999.9,62,-99.99,,,-99.99,,2013-07-10 13:32:00,
2013-07-10 09:38:00,86.0,71.6,29.16,SW,226,8.1,-999.9,62,-99.99,,,-99.99,,2013-07-10 13:38:00,
2013-07-10 09:44:00,86.0,71.6,29.15,North,0,0.0,-999.9,62,-99.99,,,-99.99,,2013-07-10 13:44:00,
2013-07-10 09:50:00,86.0,71.6,29.15,North,0,0.0,-999.9,62,-99.99,,,-99.99,,2013-07-10 13:50:00,
2013-07-10 09:56:00,87.8,71.6,29.14,West,261,1.2,-999.9,58,-99.99,,,-99.99,,2013-07-10 13:56:00,
2013-07-10 10:02:00,86.0,71.6,29.14,North,0,0.0,-999.9,62,-99.99,,,-99.99,,2013-07-10 14:02:00,
2013-07-10 10:08:00,86.0,71.6,29.14,North,0,0.0,-999.9,62,-99.99,,,-99.99,,2013-07-10 14:08:00,
2013-07-10 10:14:00,87.8,71.6,29.14,NW,321,3.5,-999.9,58,-99.99,,,-99.99,,2013-07-10 14:14:00,
2013-07-10 10:20:00,87.8,71.6,29.14,NW,321,3.5,-999.9,58,-99.99,,,-99.99,,2013-07-10 14:20:00,
2013-07-10 10:26:00,89.6,71.6,29.13,ESE,116,0.0,-999.9,55,-99.99,,,-99.99,,2013-07-10 14:26:00,
2013-07-10 10:32:00,89.6,71.6,29.13,WSW,238,2.3,-999.9,55,-99.99,,,-99.99,,2013-07-10 14:32:00,
2013-07-10 10:38:00,89.6,71.6,29.13,WSW,238,2.3,-999.9,55,-99.99,,,-99.99,,2013-07-10 14:38:00,
2013-07-10 10:44:00,87.8,69.8,29.13,SSW,195,1.2,-999.9,55,-99.99,,,-99.99,,2013-07-10 14:44:00,
2013-07-10 10:50:00,87.8,69.8,29.13,SSW,195,1.2,-999.9,55,-99.99,,,-99.99,,2013-07-10 14:50:00,
2013-07-10 10:56:00,89.6,71.6,29.13,WSW,253,3.5,-999.9,55,-99.99,,,-99.99,,2013-07-10 14:56:00,
2013-07-10 11:02:00,89.6,73.4,29.13,SW,234,2.3,-999.9,59,-99.99,,,-99.99,,2013-07-10 15:02:00,
2013-07-10 11:08:00,89.6,73.4,29.13,SW,234,2.3,-999.9,59,-99.99,,,-99.99,,2013-07-10 15:08:00,
2013-07-10 11:14:00,87.8,73.4,29.13,WSW,251,2.3,-999.9,62,-99.99,,,-99.99,,2013-07-10 15:14:00,
2013-07-10 11:20:00,87.8,73.4,29.13,WSW,251,2.3,-999.9,62,-99.99,,,-99.99,,2013-07-10 15:20:00,
2013-07-10 11:26:00,87.8,71.6,29.12,SSW,212,1.2,-999.9,58,-99.99,,,-99.99,,2013-07-10 15:26:00,
2013-07-10 11:32:00,91.4,73.4,29.11,North,0,0.0,-999.9,55,-99.99,,,-99.99,,2013-07-10 15:32:00,
2013-07-10 11:38:00,91.4,73.4,29.11,North,0,0.0,-999.9,55,-99.99,,,-99.99,,2013-07-10 15:38:00,
2013-07-10 11:44:00,89.6,71.6,29.10,WSW,257,2.3,-999.9,55,-99.99,,,-99.99,,2013-07-10 15:44:00,
2013-07-10 11:50:00,89.6,71.6,29.10,WSW,257,2.3,-999.9,55,-99.99,,,-99.99,,2013-07-10 15:50:00,
2013-07-10 11:56:00,87.8,75.2,29.11,West,270,0.0,-999.9,66,-99.99,,,-99.99,,2013-07-10 15:56:00,
2013-07-10 12:02:00,82.4,73.4,29.12,WSW,237,4.6,-999.9,74,-99.99,,,-99.99,,2013-07-10 16:02:00,
2013-07-10 12:08:00,82.4,73.4,29.12,WSW,237,4.6,-999.9,74,-99.99,,,-99.99,,2013-07-10 16:08:00,
2013-07-10 12:14:00,84.2,73.4,29.12,SW,229,1.2,-999.9,70,-99.99,,,-99.99,,2013-07-10 16:14:00,
2013-07-10 12:20:00,84.2,73.4,29.12,SW,229,1.2,-999.9,70,-99.99,,,-99.99,,2013-07-10 16:20:00,
2013-07-10 12:26:00,86.0,73.4,29.12,SW,234,1.2,-999.9,66,-99.99,,,-99.99,,2013-07-10 16:26:00,
2013-07-10 12:32:00,86.0,73.4,29.12,WSW,238,4.6,-999.9,66,-99.99,,,-99.99,,2013-07-10 16:32:00,
2013-07-10 12:38:00,86.0,73.4,29.12,WSW,238,4.6,-999.9,66,-99.99,,,-99.99,,2013-07-10 16:38:00,
2013-07-10 12:44:00,86.0,71.6,29.11,SW,226,3.5,-999.9,62,-99.99,,,-99.99,,2013-07-10 16:44:00,
2013-07-10 12:50:00,86.0,71.6,29.11,SW,226,3.5,-999.9,62,-99.99,,,-99.99,,2013-07-10 16:50:00,
2013-07-10 12:56:00,87.8,73.4,29.11,SSE,147,1.2,-999.9,62,-99.99,,,-99.99,,2013-07-10 16:56:00,
2013-07-10 13:02:00,87.8,73.4,29.10,WSW,238,3.5,-999.9,62,-99.99,,,-99.99,,2013-07-10 17:02:00,
2013-07-10 13:08:00,87.8,73.4,29.10,WSW,238,3.5,-999.9,62,-99.99,,,-99.99,,2013-07-10 17:08:00,
2013-07-10 13:14:00,89.6,73.4,29.10,SSW,200,0.0,-999.9,59,-99.99,,,-99.99,,2013-07-10 17:14:00,
2013-07-10 13:20:00,89.6,73.4,29.10,SSW,200,0.0,-999.9,59,-99.99,,,-99.99,,2013-07-10 17:20:00,
2013-07-10 13:26:00,89.6,71.6,29.08,SW,235,3.5,-999.9,55,-99.99,,,-99.99,,2013-07-10 17:26:00,
2013-07-10 13:32:00,91.4,71.6,29.08,SW,221,9.2,-999.9,52,-99.99,,,-99.99,,2013-07-10 17:32:00,
2013-07-10 13:38:00,91.4,71.6,29.08,SW,221,9.2,-999.9,52,-99.99,,,-99.99,,2013-07-10 17:38:00,
2013-07-10 13:44:00,91.4,71.6,29.07,SW,215,11.5,-999.9,52,-99.99,,,-99.99,,2013-07-10 17:44:00,
2013-07-10 13:50:00,91.4,71.6,29.07,SW,215,11.5,-999.9,52,-99.99,,,-99.99,,2013-07-10 17:50:00,
2013-07-10 13:56:00,91.4,69.8,29.06,WNW,296,1.2,-999.9,49,-99.99,,,-99.99,,2013-07-10 17:56:00,
2013-07-10 14:02:00,89.6,71.6,29.05,SW,230,2.3,-999.9,55,-99.99,,,-99.99,,2013-07-10 18:02:00,
2013-07-10 14:08:00,89.6,71.6,29.05,SW,230,2.3,-999.9,55,-99.99,,,-99.99,,2013-07-10 18:08:00,
2013-07-10 14:14:00,82.4,73.4,29.06,WNW,289,6.9,-999.9,74,-99.99,,,-99.99,,2013-07-10 18:14:00,
2013-07-10 14:20:00,82.4,73.4,29.06,WNW,289,6.9,-999.9,74,-99.99,,,-99.99,,2013-07-10 18:20:00,
2013-07-10 14:26:00,82.4,75.2,29.07,North,0,0.0,-999.9,79,-99.99,,,-99.99,,2013-07-10 18:26:00,
2013-07-10 14:32:00,84.2,75.2,29.07,SW,224,1.2,-999.9,74,-99.99,,,-99.99,,2013-07-10 18:32:00,
2013-07-10 14:38:00,84.2,75.2,29.07,SW,224,1.2,-999.9,74,-99.99,,,-99.99,,2013-07-10 18:38:00,
2013-07-10 14:44:00,84.2,75.2,29.07,SW,224,1.2,-999.9,74,-99.99,,,-99.99,,2013-07-10 18:44:00,
2013-07-10 14:50:00,84.2,75.2,29.07,SW,224,1.2,-999.9,74,-99.99,,,-99.99,,2013-07-10 18:50:00,
2013-07-10 14:56:00,87.8,75.2,29.07,North,0,0.0,-999.9,66,-99.99,,,-99.99,,2013-07-10 18:56:00,
2013-07-10 15:02:00,89.6,69.8,29.05,WSW,251,2.3,-999.9,52,-99.99,,,-99.99,,2013-07-10 19:02:00,
2013-07-10 15:08:00,89.6,69.8,29.05,WSW,251,2.3,-999.9,52,-99.99,,,-99.99,,2013-07-10 19:08:00,
2013-07-10 15:14:00,91.4,69.8,29.05,SW,222,0.0,-999.9,49,-99.99,,,-99.99,,2013-07-10 19:14:00,
2013-07-10 15:20:00,91.4,69.8,29.05,SW,222,0.0,-999.9,49,-99.99,,,-99.99,,2013-07-10 19:20:00,
2013-07-10 15:26:00,91.4,68.0,29.05,SW,218,5.8,-999.9,46,-99.99,,,-99.99,,2013-07-10 19:26:00,
2013-07-10 15:32:00,91.4,69.8,29.05,WSW,247,5.8,-999.9,49,-99.99,,,-99.99,,2013-07-10 19:32:00,
2013-07-10 15:38:00,91.4,69.8,29.05,WSW,247,5.8,-999.9,49,-99.99,,,-99.99,,2013-07-10 19:38:00,
2013-07-10 15:44:00,89.6,68.0,29.04,WSW,240,1.2,-999.9,49,-99.99,,,-99.99,,2013-07-10 19:44:00,
2013-07-10 15:50:00,89.6,68.0,29.04,WSW,240,1.2,-999.9,49,-99.99,,,-99.99,,2013-07-10 19:50:00,
2013-07-10 15:56:00,89.6,68.0,29.03,WSW,249,2.3,-999.9,49,-99.99,,,-99.99,,2013-07-10 19:56:00,
2013-07-10 16:02:00,89.6,68.0,29.03,SW,216,2.3,-999.9,49,-99.99,,,-99.99,,2013-07-10 20:02:00,
2013-07-10 16:08:00,89.6,68.0,29.03,SW,216,2.3,-999.9,49,-99.99,,,-99.99,,2013-07-10 20:08:00,
2013-07-10 16:14:00,91.4,69.8,29.03,West,272,1.2,-999.9,49,-99.99,,,-99.99,,2013-07-10 20:14:00,
2013-07-10 16:20:00,91.4,69.8,29.03,West,272,1.2,-999.9,49,-99.99,,,-99.99,,2013-07-10 20:20:00,
2013-07-10 16:26:00,89.6,68.0,29.02,NW,319,1.2,-999.9,49,-99.99,,,-99.99,,2013-07-10 20:26:00,
2013-07-10 16:32:00,89.6,68.0,29.02,West,277,2.3,-999.9,49,-99.99,,,-99.99,,2013-07-10 20:32:00,
2013-07-10 16:38:00,89.6,68.0,29.02,West,277,2.3,-999.9,49,-99.99,,,-99.99,,2013-07-10 20:38:00,
2013-07-10 16:44:00,89.6,68.0,29.02,WNW,289,3.5,-999.9,49,-99.99,,,-99.99,,2013-07-10 20:44:00,
2013-07-10 16:50:00,89.6,68.0,29.02,WNW,289,3.5,-999.9,49,-99.99,,,-99.99,,2013-07-10 20:50:00,
2013-07-10 16:56:00,89.6,68.0,29.02,WSW,241,0.0,-999.9,49,-99.99,,,-99.99,,2013-07-10 20:56:00,
2013-07-10 17:02:00,91.4,69.8,29.02,WSW,250,2.3,-999.9,49,-99.99,,,-99.99,,2013-07-10 21:02:00,
2013-07-10 17:08:00,91.4,69.8,29.02,WSW,250,2.3,-999.9,49,-99.99,,,-99.99,,2013-07-10 21:08:00,
2013-07-10 17:14:00,89.6,68.0,29.01,West,274,1.2,-999.9,49,-99.99,,,-99.99,,2013-07-10 21:14:00,
2013-07-10 17:20:00,89.6,68.0,29.01,West,274,1.2,-999.9,49,-99.99,,,-99.99,,2013-07-10 21:20:00,
2013-07-10 17:26:00,89.6,68.0,29.01,West,274,1.2,-999.9,49,-99.99,,,-99.99,,2013-07-10 21:26:00,
2013-07-10 17:32:00,89.6,68.0,29.01,West,274,1.2,-999.9,49,-99.99,,,-99.99,,2013-07-10 21:32:00,
2013-07-10 17:38:00,89.6,68.0,29.01,West,274,1.2,-999.9,49,-99.99,,,-99.99,,2013-07-10 21:38:00,
2013-07-10 17:44:00,89.6,66.2,29.01,West,281,0.0,-999.9,46,-99.99,,,-99.99,,2013-07-10 21:44:00,
2013-07-10 17:50:00,89.6,66.2,29.01,West,281,0.0,-999.9,46,-99.99,,,-99.99,,2013-07-10 21:50:00,
2013-07-10 17:56:00,89.6,66.2,29.01,WNW,299,2.3,-999.9,46,-99.99,,,-99.99,,2013-07-10 21:56:00,
2013-07-10 18:02:00,87.8,66.2,29.01,West,276,3.5,-999.9,49,-99.99,,,-99.99,,2013-07-10 22:02:00,
2013-07-10 18:08:00,87.8,66.2,29.01,West,276,3.5,-999.9,49,-99.99,,,-99.99,,2013-07-10 22:08:00,
2013-07-10 18:14:00,89.6,68.0,29.01,SW,216,0.0,-999.9,49,-99.99,,,-99.99,,2013-07-10 22:14:00,
2013-07-10 18:20:00,89.6,68.0,29.01,SW,216,0.0,-999.9,49,-99.99,,,-99.99,,2013-07-10 22:20:00,
2013-07-10 18:26:00,87.8,66.2,29.01,SW,235,0.0,-999.9,49,-99.99,,,-99.99,,2013-07-10 22:26:00,
2013-07-10 18:32:00,87.8,68.0,29.02,West,271,3.5,-999.9,52,-99.99,,,-99.99,,2013-07-10 22:32:00,
2013-07-10 18:38:00,87.8,68.0,29.02,West,271,3.5,-999.9,52,-99.99,,,-99.99,,2013-07-10 22:38:00,
2013-07-10 18:44:00,87.8,66.2,29.03,SSW,192,0.0,-999.9,49,-99.99,,,-99.99,,2013-07-10 22:44:00,
2013-07-10 18:50:00,87.8,66.2,29.03,SSW,192,0.0,-999.9,49,-99.99,,,-99.99,,2013-07-10 22:50:00,
2013-07-10 18:56:00,87.8,66.2,29.03,West,259,5.8,-999.9,49,-99.99,,,-99.99,,2013-07-10 22:56:00,
2013-07-10 19:02:00,87.8,66.2,29.03,NW,305,5.8,-999.9,49,-99.99,,,-99.99,,2013-07-10 23:02:00,
2013-07-10 19:08:00,87.8,66.2,29.03,NW,305,5.8,-999.9,49,-99.99,,,-99.99,,2013-07-10 23:08:00,
2013-07-10 19:14:00,87.8,66.2,29.03,NW,305,5.8,-999.9,49,-99.99,,,-99.99,,2013-07-10 23:14:00,
2013-07-10 19:20:00,87.8,66.2,29.03,NW,305,5.8,-999.9,49,-99.99,,,-99.99,,2013-07-10 23:20:00,
2013-07-10 19:26:00,86.0,66.2,29.05,WSW,258,2.3,-999.9,51,-99.99,,,-99.99,,2013-07-10 23:26:00,
2013-07-10 19:32:00,86.0,68.0,29.05,WSW,253,5.8,-999.9,55,-99.99,,,-99.99,,2013-07-10 23:32:00,
2013-07-10 19:38:00,86.0,68.0,29.05,WSW,253,5.8,-999.9,55,-99.99,,,-99.99,,2013-07-10 23:38:00,
2013-07-10 19:44:00,87.8,68.0,29.05,NW,307,0.0,-999.9,52,-99.99,,,-99.99,,2013-07-10 23:44:00,
2013-07-10 19:50:00,87.8,68.0,29.05,NW,307,0.0,-999.9,52,-99.99,,,-99.99,,2013-07-10 23:50:00,
2013-07-10 19:56:00,87.8,68.0,29.05,West,271,3.5,-999.9,52,-99.99,,,-99.99,,2013-07-10 23:56:00,
2013-07-10 20:02:00,87.8,68.0,29.06,SW,215,1.2,-999.9,52,-99.99,,,-99.99,,2013-07-11 00:02:00,
2013-07-10 20:08:00,87.8,68.0,29.06,SW,215,1.2,-999.9,52,-99.99,,,-99.99,,2013-07-11 00:08:00,
2013-07-10 21:02:00,86.0,68.0,29.07,North,0,0.0,-999.9,55,-99.99,,,-99.99,,2013-07-11 01:02:00,
2013-07-10 21:08:00,86.0,68.0,29.07,North,0,0.0,-999.9,55,-99.99,,,-99.99,,2013-07-11 01:08:00,
2013-07-10 21:14:00,86.0,68.0,29.08,SW,222,0.0,-999.9,55,-99.99,,,-99.99,,2013-07-11 01:14:00,
2013-07-10 21:20:00,86.0,68.0,29.08,SW,222,0.0,-999.9,55,-99.99,,,-99.99,,2013-07-11 01:20:00,
2013-07-10 21:26:00,86.0,68.0,29.08,WSW,253,1.2,-999.9,55,-99.99,,,-99.99,,2013-07-11 01:26:00,
2013-07-10 21:32:00,86.0,69.8,29.08,NNW,337,1.2,-999.9,58,-99.99,,,-99.99,,2013-07-11 01:32:00,
2013-07-10 21:38:00,86.0,69.8,29.08,NNW,337,1.2,-999.9,58,-99.99,,,-99.99,,2013-07-11 01:38:00,
2013-07-10 21:44:00,86.0,69.8,29.08,North,0,0.0,-999.9,58,-99.99,,,-99.99,,2013-07-11 01:44:00,
2013-07-10 21:50:00,86.0,69.8,29.08,North,0,0.0,-999.9,58,-99.99,,,-99.99,,2013-07-11 01:50:00,
2013-07-10 21:56:00,86.0,69.8,29.08,North,0,0.0,-999.9,58,-99.99,,,-99.99,,2013-07-11 01:56:00,
2013-07-10 22:02:00,86.0,69.8,29.08,West,264,1.2,-999.9,58,-99.99,,,-99.99,,2013-07-11 02:02:00,
2013-07-10 22:08:00,86.0,69.8,29.08,West,264,1.2,-999.9,58,-99.99,,,-99.99,,2013-07-11 02:08:00,
2013-07-10 22:14:00,86.0,69.8,29.08,SW,235,1.2,-999.9,58,-99.99,,,-99.99,,2013-07-11 02:14:00,
2013-07-10 22:20:00,86.0,69.8,29.08,SW,235,1.2,-999.9,58,-99.99,,,-99.99,,2013-07-11 02:20:00,
2013-07-10 22:26:00,86.0,69.8,29.08,WNW,301,0.0,-999.9,58,-99.99,,,-99.99,,2013-07-11 02:26:00,
2013-07-10 22:32:00,86.0,69.8,29.08,West,273,1.2,-999.9,58,-99.99,,,-99.99,,2013-07-11 02:32:00,
2013-07-10 22:38:00,86.0,69.8,29.08,West,273,1.2,-999.9,58,-99.99,,,-99.99,,2013-07-11 02:38:00,
2013-07-10 22:44:00,86.0,69.8,29.08,North,0,0.0,-999.9,58,-99.99,,,-99.99,,2013-07-11 02:44:00,
2013-07-10 22:50:00,86.0,69.8,29.08,North,0,0.0,-999.9,58,-99.99,,,-99.99,,2013-07-11 02:50:00,
2013-07-10 22:56:00,86.0,69.8,29.08,SW,230,2.3,-999.9,58,-99.99,,,-99.99,,2013-07-11 02:56:00,
2013-07-10 23:02:00,86.0,69.8,29.08,SW,230,2.3,-999.9,58,-99.99,,,-99.99,,2013-07-11 03:02:00,
2013-07-10 23:08:00,86.0,69.8,29.08,SW,230,2.3,-999.9,58,-99.99,,,-99.99,,2013-07-11 03:08:00,
2013-07-10 23:14:00,86.0,71.6,29.07,North,0,0.0,-999.9,62,-99.99,,,-99.99,,2013-07-11 03:14:00,
2013-07-10 23:20:00,86.0,71.6,29.07,North,0,0.0,-999.9,62,-99.99,,,-99.99,,2013-07-11 03:20:00,
2013-07-10 23:26:00,86.0,69.8,29.07,North,357,2.3,-999.9,58,-99.99,,,-99.99,,2013-07-11 03:26:00,
2013-07-10 23:32:00,86.0,71.6,29.06,WNW,295,0.0,-999.9,62,-99.99,,,-99.99,,2013-07-11 03:32:00,
2013-07-10 23:38:00,86.0,71.6,29.06,WNW,295,0.0,-999.9,62,-99.99,,,-99.99,,2013-07-11 03:38:00,
2013-07-10 23:44:00,84.2,69.8,29.07,SW,224,1.2,-999.9,62,-99.99,,,-99.99,,2013-07-11 03:44:00,
2013-07-10 23:50:00,84.2,69.8,29.07,SW,224,1.2,-999.9,62,-99.99,,,-99.99,,2013-07-11 03:50:00,
2013-07-10 23:56:00,84.2,71.6,29.07,West,273,0.0,-999.9,66,-99.99,,,-99.99,,2013-07-11 03:56:00,